Location: Ottawa
(45.4167°N, 75.7000°W)
Time: 01:56:27
(UTC-04:00)

ISS - Pass Details

Date: 11 October 2017
Orbit: 401 x 408 km, 51.6° (Epoch: 18 October)

Event Time Altitude Azimuth Distance (km) Brightness Sun altitude
Rises 20:25:41 0° 296° (WNW) 2,327 1.4 -22.1°
Reaches altitude 10° 20:27:49 10° 289° (WNW) 1,465 0.1 -22.4°
Enters shadow 20:30:28 39° 243° (WSW) 622 -2.6 -22.9°
